Content
SEND FEEDBACK

Daily
Averages
Monthly
Summary
United States of America

ATLANTA, KANSAS


Home > North America > United States > Kansas
Elevation: 1440 feet     Latitude: 37 26N     Longitude: 096 46W

WEATHER
 
SELECT A DAY
Number of Records: 16,998;   Date Range: 9/1/12 - 7/29/14
 
SHARE

PRINT THIS DATA

[ ← Previous Day ]
WEATHER ALMANAC - FEBRUARY 13, 2013
[ Next Day → ]
[ °C ]   °F
Weather ElementAverageHighLow
Temperature31.9 °F50 °F (4:54 pm)21.9 °F (7:54 am)
Dewpoint28.5 °F37 °F (3:54 pm)21 °F (7:54 am)
Humidity88.6 %100 % (12:25 am)59 % (4:54 pm)
Barometer30.01 in30.07 in (12:54 am)29.94 in (4:54 pm)
Wind Speed6.5 mph15 mph (2:54 pm)
Weather ElementAverage
Visibility5.5 mi
Wind DirectionSSW (206.4 °)

Weather ElementTotal
Precipitation---
Heating Degree Days29.1 (Base 65)
Averaged from 39 records on February 13, 2013
WEATHER CONDITIONS BREAKOUT
WIND DIRECTION BREAKOUT
WEATHER BY HOUR - FEBRUARY 13, 2013
[ °C ]   °F
Local TimeTemperatureDewpointHumidityBarometerVisibilityWind DirectionWind SpeedGust SpeedPrecipitationEventsConditions
12:25 AM28.4 °F28.4 °F100 %30.04 in0.8 miWSW (250°)3.5 mphMist
12:32 AM28.4 °F28.4 °F100 %30.04 in0.5 miSW (230°)3.5 mphFogLight Freezing Fog
12:54 AM28.0 °F28.0 °F100 %30.07 in0.2 miSSW (200°)3.5 mphFogLight Freezing Fog
1:31 AM26.6 °F26.6 °F100 %30.03 in1.0 miSSW (210°)3.5 mphMostly Cloudy
1:36 AM28.4 °F26.6 °F93 %30.03 in2.0 miSW (220°)3.5 mphMostly Cloudy
1:44 AM28.4 °F28.4 °F100 %30.03 in6.0 miSW (220°)4.6 mphMostly Cloudy
1:54 AM28.9 °F28.0 °F96 %30.06 in6.0 miSW (230°)5.8 mphOvercast
2:28 AM30.2 °F30.2 °F100 %30.02 in2.5 miWSW (250°)8.1 mphOvercast
2:37 AM30.2 °F30.2 °F100 %30.02 in1.0 miWest (260°)6.9 mphOvercast
2:54 AM30.0 °F30.0 °F100 %30.05 in2.0 miWest (260°)9.2 mphOvercast
3:21 AM30.2 °F30.2 °F100 %30.00 in0.8 miWSW (240°)5.8 mphOvercast
3:32 AM28.4 °F28.4 °F100 %30.00 in0.5 miSW (230°)5.8 mphFogLight Freezing Fog
3:54 AM28.0 °F28.0 °F100 %30.02 in0.2 miSW (220°)3.5 mphFogLight Freezing Fog
4:19 AM26.6 °F26.6 °F100 %29.99 in1.0 miSW (230°)3.5 mphMist
4:25 AM26.6 °F26.6 °F100 %29.99 in3.0 miCalmMostly Cloudy
4:41 AM26.6 °F24.8 °F93 %29.98 in4.0 miSW (220°)3.5 mphScattered Clouds
4:54 AM24.1 °F24.1 °F100 %30.02 in4.0 miWSW (240°)3.5 mphClear
5:33 AM24.8 °F23.0 °F93 %29.99 in1.8 miCalmClear
5:45 AM24.8 °F23.0 °F93 %29.99 in2.5 miCalmClear
5:54 AM25.0 °F23.0 °F92 %30.03 in2.5 miCalmClear
6:01 AM24.8 °F23.0 °F93 %30.00 in3.0 miWSW (240°)3.5 mphClear
6:54 AM23.0 °F21.9 °F96 %30.04 in5.0 miSW (230°)4.6 mphClear
7:54 AM21.9 °F21.0 °F96 %30.04 in7.0 miSW (230°)4.6 mphClear
8:54 AM26.1 °F25.0 °F96 %30.05 in9.0 miSW (220°)4.6 mphClear
9:54 AM28.0 °F26.1 °F92 %30.05 in10.0 miSW (230°)5.8 mphClear
10:54 AM30.0 °F28.0 °F92 %30.06 in10.0 miSW (220°)8.1 mphClear
11:54 AM32.0 °F28.9 °F88 %30.05 in10.0 miSW (230°)9.2 mphClear
12:54 PM37.0 °F30.9 °F79 %30.03 in10.0 miSW (230°)9.2 mphClear
1:54 PM42.1 °F35.1 °F76 %29.99 in10.0 miWSW (240°)9.2 mphClear
2:54 PM45.0 °F35.1 °F68 %29.96 in10.0 miWSW (240°)15.0 mphClear
3:54 PM48.0 °F37.0 °F66 %29.95 in10.0 miSW (220°)13.8 mphClear
4:54 PM50.0 °F36.0 °F59 %29.94 in10.0 miSW (230°)15.0 mphClear
5:54 PM46.0 °F36.0 °F68 %29.95 in10.0 miSSW (210°)10.4 mphClear
6:54 PM43.0 °F33.1 °F68 %29.96 in10.0 miSW (220°)11.5 mphClear
7:54 PM42.1 °F28.9 °F60 %29.96 in10.0 miSW (230°)10.4 mphClear
8:54 PM39.9 °F30.0 °F68 %29.96 in10.0 miSW (220°)12.7 mphClear
9:54 PM37.0 °F30.9 °F79 %29.97 in10.0 miSW (230°)8.1 mphClear
10:54 PM37.0 °F30.9 °F79 %29.98 in10.0 miSW (230°)8.1 mphClear
11:54 PM37.9 °F30.0 °F73 %29.97 in10.0 miWSW (240°)11.5 mphClear
Hourly data recorded from KWLD, located miles away from Atlanta, Kansas







STORIES FROM OUR PARTNERS